Theta_e
302 308 336 345 346 346 346 346 346 344 342 341 341 340 339 340 338 339 339 340 341 341 339 337 339 340 340 341 343 343 344 345 343 342 341 339 338 338 336 336 337 333 336
301 307 333 345 345 347 348 346 346 345 343 342 341 341 340 340 340 340 338 339 339 340 344 340 342 342 342 338 339 341 341 341 342 341 341 341 339 336 335 335 334 333 334
304 310 322 340 345 346 346 347 347 346 345 345 344 343 343 340 339 337 337 338 337 338 341 341 342 341 341 340 338 339 338 337 339 340 339 337 335 335 335 335 333 334 333
305 311 324 335 341 344 345 345 346 346 346 345 345 344 344 343 341 339 338 338 336 336 337 340 341 340 339 338 338 339 337 336 336 338 335 332 332 335 333 335 333 334 333
306 310 320 329 334 336 340 342 344 344 344 344 344 344 344 344 343 343 341 339 338 336 337 338 340 340 338 335 336 338 337 337 337 334 333 333 333 332 335 335 333 334 335
306 309 315 322 324 326 330 333 336 339 342 343 343 343 343 344 344 344 342 342 339 338 337 338 338 340 341 337 335 336 337 336 336 333 331 331 333 333 338 333 334 334 334
303 306 309 316 318 319 321 324 326 328 329 331 335 338 340 342 342 343 343 341 341 339 338 337 338 341 340 338 338 336 338 336 334 333 330 329 329 333 336 338 335 334 334
300 303 306 309 313 313 315 317 318 319 320 321 325 327 330 335 338 340 341 342 341 340 340 339 339 338 339 339 338 336 335 333 332 331 329 328 326 329 335 336 335 334 334
298 300 301 304 306 309 311 312 313 314 315 314 318 317 326 328 328 326 332 338 340 341 341 341 340 338 337 338 338 334 332 331 333 329 326 325 323 330 335 336 334 334 333
297 297 298 301 303 305 305 308 309 310 311 311 311 312 311 311 314 316 320 326 336 339 340 339 339 338 337 337 336 333 329 329 332 330 327 323 322 328 336 335 335 334 333
297 297 297 298 300 303 304 303 305 307 307 307 307 309 308 307 310 310 313 316 320 323 332 338 338 337 335 333 333 330 326 328 329 329 327 321 323 327 332 335 336 335 334
295 296 296 297 298 300 301 302 303 303 305 305 305 306 307 306 308 308 311 312 312 315 324 332 336 334 330 332 331 329 331 328 327 326 325 322 324 327 329 333 335 337 335
295 295 296 296 296 298 299 301 301 302 304 304 304 305 306 305 306 306 309 310 310 311 314 318 329 335 332 331 330 328 330 328 327 325 323 321 325 327 328 330 333 335 337
294 295 296 295 295 297 298 299 300 301 302 302 303 304 305 304 304 304 306 306 307 309 310 311 314 315 324 330 330 326 324 325 327 325 323 319 324 327 328 329 331 332 336
292 294 295 295 295 295 296 297 298 299 300 302 302 303 303 303 303 304 304 306 306 308 308 309 308 310 312 320 328 325 323 322 324 322 324 316 321 325 327 328 329 331 332
292 293 294 294 295 295 295 296 297 298 299 301 301 302 302 303 303 303 303 304 305 306 306 308 305 307 310 313 317 325 324 323 323 323 321 323 318 323 326 327 327 328 331
292 293 293 294 295 294 294 295 296 298 298 299 300 301 301 301 301 301 302 303 303 304 305 305 304 306 308 309 312 318 323 322 323 321 321 320 321 318 322 326 327 326 328
291 292 293 293 293 294 294 295 295 297 298 298 300 300 300 300 300 301 301 301 303 303 304 303 302 303 304 304 306 311 314 321 322 322 320 320 320 320 318 322 325 327 327
291 292 293 293 293 293 294 295 295 296 297 298 299 299 299 299 300 300 300 300 301 302 302 301 301 302 301 303 303 306 311 314 320 322 321 319 319 320 319 318 318 320 324
290 291 291 292 292 293 293 294 295 296 297 297 297 298 298 298 298 299 299 299 300 300 299 300 299 300 300 302 301 303 308 310 314 316 321 321 320 318 318 318 317 317 318
290 290 290 290 291 292 293 293 293 293 295 295 296 296 297 297 298 298 298 298 298 298 298 298 298 297 298 301 300 301 305 309 312 314 317 321 320 318 316 315 316 317 317
290 289 289 290 291 292 292 293 293 294 294 294 295 296 296 296 297 296 296 296 296 296 296 296 296 296 297 299 296 298 295 302 310 314 317 320 319 320 316 315 315 316 316
288 289 289 290 291 291 291 293 293 294 293 293 294 294 295 295 296 295 295 295 295 296 295 296 296 295 294 297 299 296 292 295 302 315 317 318 318 317 316 314 313 315 316
288 288 289 290 290 291 291 291 291 290 289 292 292 293 294 294 294 294 294 294 294 295 295 295 296 296 296 292 295 298 299 298 294 296 310 310 313 314 314 313 312 313 315
288 288 289 289 289 290 291 291 290 289 291 291 291 291 292 293 293 292 293 292 292 292 293 294 294 295 295 295 295 296 296 298 300 297 294 300 305 307 311 311 311 311 312
288 288 289 289 289 290 290 291 290 289 289 289 289 289 290 291 291 292 293 293 292 292 292 292 293 293 294 295 296 296 295 293 294 295 295 297 301 305 307 310 311 311 312
Wind_Speed
12 17 20 8 8 7 5 3 2 5 5 5 6 5 4 4 3 3 4 6 11 8 8 8 7 7 4 2 5 6 8 9 7 6 9 8 8 9 8 8 4 5 8
12 12 20 12 9 8 6 5 4 3 6 6 6 5 5 6 6 6 5 5 7 8 12 9 7 7 9 2 1 1 2 3 5 5 6 5 9 8 8 7 4 6 8
11 12 13 15 12 12 11 8 7 7 7 9 9 8 7 7 7 7 7 6 4 7 7 8 7 5 6 6 3 4 2 2 3 5 5 5 6 9 8 7 7 8 7
11 11 15 17 15 13 12 13 12 10 9 9 10 10 10 9 9 9 9 9 8 5 4 5 5 5 4 2 3 7 6 4 2 3 5 5 6 8 8 9 8 8 9
10 10 14 18 18 17 16 16 14 13 12 11 10 11 12 12 11 12 11 10 10 10 8 6 6 8 6 5 4 6 8 7 6 6 5 5 5 6 9 10 10 9 8
10 10 12 17 18 19 19 18 18 18 17 16 12 12 13 13 11 12 13 12 12 11 12 12 10 11 12 8 6 8 8 8 7 7 6 6 6 7 9 11 9 7 6
8 10 11 17 17 18 18 19 19 19 19 18 17 16 16 15 15 13 13 14 14 14 14 14 14 13 10 7 10 10 9 9 9 8 7 6 6 9 13 12 11 10 9
7 7 9 12 15 17 18 18 18 18 18 18 17 17 16 15 14 15 15 15 16 17 17 17 15 14 14 11 12 11 9 10 9 9 8 7 9 13 15 16 14 13 13
6 7 7 9 11 14 17 17 18 18 18 19 17 19 17 16 17 18 18 16 17 19 19 18 17 16 15 15 15 13 12 10 10 7 8 7 10 14 18 19 15 14 15
3 5 6 7 8 7 8 15 16 17 18 18 18 18 17 16 18 17 17 20 18 19 18 19 20 18 17 16 15 13 13 12 11 9 7 7 12 15 18 18 16 16 17
4 4 4 6 6 7 6 8 11 13 15 15 15 17 13 10 12 14 14 19 19 20 19 21 21 20 18 15 14 14 13 8 11 8 7 11 15 16 19 20 20 18 18
3 4 4 5 5 5 5 6 7 7 7 7 9 10 8 10 10 12 11 16 18 17 20 20 21 20 14 10 8 11 9 12 10 10 8 15 17 19 20 21 21 18 19
2 2 3 3 3 3 4 3 3 3 4 5 8 8 7 7 7 7 6 6 8 11 8 11 11 8 11 9 11 10 12 12 9 8 11 18 20 21 22 22 22 22 19
4 4 3 3 3 3 2 3 3 4 4 4 5 7 6 5 6 7 6 8 8 7 10 9 6 9 11 15 16 15 13 11 9 8 11 18 21 23 24 24 24 24 23
5 4 4 3 2 2 2 1 2 3 3 4 5 6 5 6 6 7 7 7 7 8 8 8 9 9 9 12 11 14 15 15 15 9 8 16 21 24 25 26 26 26 25
5 5 4 4 3 2 2 3 3 3 4 4 4 5 7 6 6 6 7 7 7 7 8 8 9 9 9 9 11 13 16 15 16 16 11 11 22 24 26 27 27 27 27
5 5 5 4 3 3 4 4 3 4 5 5 5 6 7 7 7 8 7 7 7 7 10 9 9 9 9 9 12 10 10 14 14 15 13 11 12 21 24 28 28 28 27
5 6 4 3 4 4 4 4 4 5 4 5 5 5 8 8 9 8 7 8 8 8 8 8 9 9 9 9 9 9 9 10 15 17 13 12 12 12 17 26 27 27 27
6 5 4 3 5 5 4 4 5 6 4 5 5 5 8 8 8 7 7 8 9 8 8 8 8 9 9 9 10 10 10 10 10 12 17 16 17 14 11 18 27 27 27
5 4 4 3 4 4 3 3 3 4 4 4 5 6 8 7 9 8 7 9 9 8 8 8 11 9 10 10 11 11 10 11 10 10 12 13 15 15 14 16 13 16 26
5 4 3 4 3 2 2 2 2 4 6 6 5 7 8 8 9 9 7 9 9 9 10 11 10 12 9 9 9 9 10 12 14 13 12 12 15 16 16 15 12 11 13
4 4 4 3 3 1 0 1 2 3 5 6 6 7 8 9 10 10 10 10 11 9 11 11 11 9 9 8 6 7 8 6 9 13 12 13 15 13 14 16 16 18 15
6 5 4 3 3 2 2 2 3 4 4 4 5 7 7 10 11 12 13 11 11 10 9 11 10 13 10 8 11 7 5 7 5 3 12 12 14 12 13 14 16 17 18
7 5 5 3 2 2 2 3 4 5 8 6 8 8 9 10 10 11 12 12 12 10 12 11 10 11 11 11 9 10 14 11 6 7 3 3 4 9 12 10 12 14 16
6 6 4 3 3 2 3 3 4 7 7 8 8 12 11 10 9 10 10 11 11 10 12 13 13 13 10 11 11 10 12 11 13 12 11 10 7 4 4 8 9 10 11
3 4 3 4 3 2 3 4 5 9 10 9 10 10 9 8 8 10 12 10 10 11 12 11 13 16 13 13 12 12 11 10 9 11 11 13 11 9 5 7 9 10 11
Wind_Direction
331 335 331 308 289 302 327 316 300 177 187 178 173 167 168 181 204 242 269 274 281 259 248 238 229 236 236 359 230 183 188 179 188 166 140 152 146 148 148 142 145 153 140
311 335 356 334 313 317 315 307 268 238 210 214 220 222 218 204 204 222 251 286 333 304 285 236 220 228 192 167 48 168 257 164 130 126 145 168 155 157 157 153 173 168 157
344 356 356 2 351 340 334 315 295 273 249 231 229 236 237 241 245 246 252 260 283 316 347 263 223 217 162 169 163 190 151 58 150 158 160 191 183 170 169 177 184 174 172
352 1 11 17 22 14 6 354 335 312 298 271 263 259 250 244 242 252 260 267 270 260 306 279 233 196 167 147 241 204 192 183 176 177 192 205 203 201 196 192 208 184 189
9 11 14 25 32 33 31 29 17 0 338 311 290 284 286 274 258 249 251 255 271 269 249 237 245 249 209 106 301 254 218 198 186 190 206 218 225 238 207 206 211 201 200
10 14 17 29 33 34 34 32 31 26 23 19 359 330 307 295 289 269 253 249 250 260 269 259 246 234 253 197 239 265 249 223 189 202 208 210 226 253 229 213 219 218 202
19 18 25 33 36 37 36 34 33 29 27 25 18 12 4 346 324 294 261 246 245 250 255 261 263 259 256 238 207 234 246 234 226 213 214 217 227 247 253 225 212 214 209
33 27 29 25 34 37 35 34 33 33 28 24 22 14 6 4 355 329 310 277 255 250 251 253 250 255 260 235 210 209 233 228 218 228 227 233 241 245 241 249 221 217 226
23 31 28 28 27 32 33 33 31 30 28 25 20 15 11 12 9 6 343 310 290 271 258 250 245 243 244 252 228 203 206 217 225 227 236 241 246 248 231 239 226 225 228
40 40 24 25 29 28 33 31 29 28 25 22 18 14 9 3 2 355 0 355 319 288 268 259 248 239 242 243 234 221 205 195 215 223 234 243 250 249 235 236 230 225 227
18 30 21 17 20 16 30 23 23 22 21 18 10 7 6 2 354 350 345 344 334 344 324 276 252 240 233 237 235 215 214 227 212 211 220 225 242 251 245 241 246 224 228
334 343 5 7 6 13 23 18 19 13 14 12 8 6 3 357 350 344 339 343 343 339 333 315 273 250 242 238 238 226 226 222 220 221 215 211 230 242 246 245 243 241 227
275 276 321 327 336 7 14 10 12 7 1 1 1 359 354 354 347 346 337 339 338 337 337 339 322 255 244 235 232 228 231 227 223 222 225 208 220 233 240 244 243 246 239
254 271 281 306 344 1 9 11 353 356 353 349 346 350 349 345 343 338 331 331 331 333 330 335 320 325 316 246 230 229 223 218 222 224 224 206 216 225 233 239 242 244 245
252 256 269 284 299 302 335 331 336 337 328 328 333 336 343 337 331 325 322 320 320 321 322 321 322 313 311 314 261 225 224 224 224 223 222 206 215 225 228 232 238 242 244
243 254 260 273 265 279 335 333 324 313 312 317 316 321 327 325 317 314 313 309 308 310 313 310 312 306 302 299 289 280 236 231 227 223 221 216 213 221 229 231 232 237 240
235 250 256 272 269 298 321 319 323 307 311 309 309 313 314 319 309 306 307 307 303 304 305 303 305 300 295 298 290 290 262 239 237 225 226 222 222 222 223 230 231 230 234
236 240 256 280 300 313 330 317 306 298 301 298 299 305 309 311 307 305 304 304 298 298 297 298 301 297 297 296 296 291 281 272 236 230 224 220 223 223 222 229 228 229 228
225 244 277 312 311 308 300 289 293 297 295 295 296 297 300 303 301 297 292 294 292 290 289 290 292 291 295 294 291 285 278 275 270 234 228 222 223 219 224 220 224 225 225
231 245 264 285 305 298 289 291 289 289 291 293 295 291 296 298 297 296 293 291 290 286 284 283 285 285 285 288 292 285 276 269 260 255 246 232 223 219 222 224 217 222 219
238 245 258 304 315 346 354 340 325 311 311 297 287 289 294 291 293 292 289 290 283 277 279 279 280 283 280 283 293 281 273 264 255 244 239 235 224 218 213 217 221 221 216
207 242 253 269 311 344 258 268 260 278 277 276 281 283 283 289 289 293 292 290 286 280 278 274 274 279 272 259 264 298 290 280 237 235 230 223 226 219 214 210 214 222 218
226 227 244 273 298 322 337 311 299 273 278 286 295 301 295 292 291 291 292 288 287 281 275 274 271 270 273 267 252 248 278 251 339 260 241 233 226 216 213 216 217 223 219
220 210 233 249 295 316 350 327 323 303 305 301 299 295 295 287 286 295 302 300 291 282 279 276 270 261 262 265 261 242 243 268 274 284 262 301 284 236 212 209 209 222 223
196 214 224 264 285 289 320 318 312 303 295 298 297 300 299 295 290 290 293 301 297 294 286 275 272 268 262 259 253 248 246 252 248 251 260 277 268 230 234 212 203 208 210
229 231 231 257 273 292 309 316 310 307 306 308 310 306 306 307 303 290 288 282 277 277 276 273 272 270 262 257 253 249 248 242 234 240 252 258 271 280 246 224 215 212 207